User: anonymous   Login
Location: Caltech
(34.1382°N, 118.1253°W)
Time: 03:50:22
(UTC-07:00)
Language:

UOSAT-12 - Orbit

View from above orbital plane
View from above orbital plane
View from above satellite
View from above satellite

Ground track
Ground track

The orbit data is extracted from the following two-line orbital elements,

1 25693U 99021A   15242.71673265  .00000089  00000-0  30473-4 0  9995
2 25693 064.5574 348.6262 0036610 231.3434 296.1352 14.80500762882970
Epoch (UTC): 30 August 2015 17:12:05
Eccentricity: 0.0036610
inclination: 64.5574°
perigee height: 602 km
apogee height: 653 km
right ascension of ascending node: 348.6262°
argument of perigee: 231.3434°
revolutions per day: 14.80500762
mean anomaly at epoch: 296.1352°
orbit number at epoch: 88297

The dashed part of the orbit path shows where the satellite is in the earth's shadow,  

DLR